Tracking 30743 objects as of 21-Jun-2025
HD Live streaming from Space Station
objects crossing your sky now

COSMOS 1275 DEB

Track COSMOS 1275 DEB now!
10-day predictions


NORAD ID: 17619
Int'l Code: 1981-053KR
Perigee: 771.6 km
Apogee: 798.5 km
Inclination: 82.9 °
Period: 100.4 minutes
Semi major axis: 7156 km
RCS: 0.0072 m2 (small)
Launch date: June 4, 1981
Source: Commonwealth of Independent States (former USSR) (CIS)
Launch site: PLESETSK MISSILE AND SPACE COMPLEX (PKMTR)

Note: This is SATELLITE DEBRIS
Your satellite tracking list
Your tracking list is empty




NASA's NSSDC Master Catalog

Two Line Element Set (TLE):
1 17619U 81053KN  25171.17211510  .00003335  00000-0  11831-2 0  9995
2 17619  82.9414 315.2516 0018841 158.1398 261.7689 14.34145236 63218
Source of the keplerian elements: AFSPC